Location: Czekanka
(50.4925°N, 19.2643°E)
Time: 23:15:46
(UTC+00:00)

NOSS 3-2 (C) - Visible Passes

Search period start: 15 September 2024 00:00
Search period end: 25 September 2024 00:00
Orbit: 707 x 1504 km, 63.4° (Epoch: 11 August)

Date Brightness Start Highest point End Pass type
(mag) Time Alt. Az. Time Alt. Az. Time Alt. Az.
15 Sep 5.4 01:33:35 10° SE 01:36:44 16° ESE 01:40:08 10° ENE visible
15 Sep 3.3 03:21:03 10° SW 03:26:20 83° SE 03:32:42 10° NE visible
16 Sep 3.8 02:37:11 15° SSW 02:41:26 55° ESE 02:47:28 10° NE visible
17 Sep 4.4 01:53:54 21° SSE 01:56:41 35° ESE 02:02:06 10° NE visible
17 Sep 3.6 03:41:49 10° WSW 03:47:11 57° NW 03:53:39 10° NE visible
18 Sep 4.9 01:10:34 19° SE 01:12:06 22° ESE 01:16:28 10° ENE visible
18 Sep 3.3 02:58:00 19° SW 03:02:01 80° NW 03:08:29 10° NE visible
19 Sep 5.5 00:27:11 12° ESE 00:27:38 13° ESE 00:29:59 10° E visible
19 Sep 3.4 02:14:37 34° SSW 02:17:01 70° SE 02:23:17 10° NE visible
20 Sep 3.8 01:31:11 41° SSE 01:32:10 45° ESE 01:38:00 10° NE visible
20 Sep 3.8 03:18:36 15° WSW 03:23:00 48° NNW 03:29:25 10° NE visible
21 Sep 4.6 00:47:43 28° ESE 00:47:43 28° ESE 00:52:32 10° ENE visible
21 Sep 3.4 02:35:08 32° WSW 02:37:44 66° NW 02:44:13 10° NE visible
22 Sep 5.4 00:04:13 16° E 00:04:13 16° E 00:06:39 10° ENE visible
22 Sep 3.1 01:51:38 62° SW 01:52:38 88° SE 01:59:03 10° NE visible
22 Sep 4.5 03:39:04 10° W 03:44:17 34° NNW 03:50:30 10° NE visible
23 Sep 3.6 01:08:06 57° ESE 01:08:06 57° ESE 01:13:49 10° NE visible
23 Sep 4.1 02:55:32 22° W 02:58:50 42° NNW 03:05:11 10° NE visible
24 Sep 4.7 00:24:33 31° E 00:24:33 31° E 00:28:28 10° NE visible
24 Sep 3.6 02:11:58 42° W 02:13:30 55° NW 02:19:58 10° NE visible
24 Sep 4.9 04:00:40 10° WNW 04:05:50 28° N 04:11:53 10° NE visible
24 Sep 5.5 23:40:58 17° ENE 23:40:58 17° ENE 23:42:52 10° ENE visible
